QPF
0.02 0.02 0.02 0.03 0.02 0.02 0.02 0.03 0.03 0.03 0.03 0.05 0.04 0.01 0.01 0.01 0.01 0.01 0.01 0.01 0.02 0.03 0.03 0.02 0.02 0.02 0.02 0.02 0.02 0.01 0.01 0.01 0.01 0.01 0.01 0.01 0.01 0.01 0.01 0.01 0.01 0.02 0.02
0.03 0.02 0.02 0.02 0.02 0.01 0.01 0.02 0.03 0.02 0.02 0.02 0.04 0.04 0.02 0.01 0.01 0.01 0.01 0.01 0.02 0.02 0.03 0.03 0.02 0.02 0.03 0.03 0.02 0.02 0.01 0.01 0.01 0.01 0.01 0.01 0.01 0.01 0.01 0.01 0.01 0.01 0.02
0.06 0.03 0.02 0.02 0.02 0.02 0.02 0.02 0.03 0.03 0.02 0.02 0.03 0.03 0.04 0.02 0.01 0.01 0.01 0.01 0.02 0.02 0.02 0.02 0.02 0.02 0.02 0.03 0.03 0.02 0.01 0.01 0.01 0.01 0.01 0.01 0.01 0.01 0.01 0.01 0.01 0.01 0.02
0.06 0.06 0.04 0.03 0.03 0.04 0.04 0.04 0.04 0.04 0.03 0.02 0.01 0.01 0.03 0.03 0.02 0.01 0.01 0.01 0.01 0.01 0.01 0.02 0.02 0.02 0.02 0.03 0.03 0.03 0.02 0.01 0.01 0.01 0.01 0.01 0.02 0.02 0.02 0.01 0.01 0.01 0.02
0.06 0.07 0.07 0.04 0.03 0.04 0.06 0.05 0.05 0.05 0.04 0.02 0.02 0.01 0.02 0.02 0.03 0.03 0.01 0.01 0.01 0.01 0.01 0.01 0.01 0.02 0.02 0.02 0.03 0.03 0.03 0.02 0.01 0.01 0.01 0.01 0.01 0.02 0.02 0.01 0.01 0.01 0.03
0.09 0.08 0.09 0.07 0.04 0.03 0.05 0.06 0.04 0.04 0.05 0.04 0.03 0.02 0.02 0.02 0.02 0.03 0.03 0.02 0.02 0.02 0.02 0.01 0.01 0.01 0.01 0.02 0.02 0.03 0.04 0.05 0.04 0.03 0.02 0.01 0.02 0.02 0.02 0.01 0.02 0.03 0.04
0.09 0.08 0.08 0.09 0.07 0.05 0.05 0.06 0.04 0.03 0.04 0.05 0.06 0.04 0.03 0.02 0.02 0.02 0.03 0.03 0.02 0.01 0.01 0.02 0.02 0.01 0.01 0.02 0.02 0.02 0.03 0.04 0.08 0.09 0.07 0.03 0.02 0.02 0.01 0.01 0.02 0.03 0.03
0.10 0.09 0.06 0.07 0.08 0.07 0.06 0.06 0.05 0.04 0.04 0.04 0.06 0.07 0.06 0.05 0.03 0.02 0.02 0.02 0.03 0.02 0.02 0.02 0.02 0.01 0.01 0.01 0.02 0.02 0.02 0.02 0.04 0.07 0.11 0.10 0.05 0.03 0.02 0.01 0.01 0.01 0.02
0.12 0.10 0.05 0.06 0.09 0.09 0.08 0.07 0.06 0.04 0.04 0.03 0.04 0.06 0.06 0.05 0.03 0.03 0.02 0.02 0.02 0.02 0.02 0.02 0.02 0.02 0.02 0.02 0.02 0.02 0.02 0.02 0.02 0.03 0.04 0.09 0.12 0.08 0.04 0.02 0.01 0.01 0.01
0.11 0.13 0.08 0.05 0.07 0.10 0.11 0.11 0.08 0.06 0.04 0.03 0.03 0.03 0.04 0.04 0.04 0.03 0.02 0.02 0.02 0.02 0.02 0.03 0.03 0.02 0.02 0.02 0.02 0.02 0.01 0.01 0.02 0.03 0.03 0.04 0.07 0.12 0.12 0.09 0.03 0.01 0.01
0.13 0.13 0.10 0.07 0.05 0.07 0.10 0.12 0.12 0.10 0.07 0.04 0.03 0.03 0.02 0.03 0.03 0.03 0.02 0.01 0.01 0.01 0.01 0.03 0.03 0.03 0.03 0.02 0.02 0.01 0.01 0.01 0.02 0.03 0.03 0.03 0.04 0.06 0.10 0.11 0.07 0.03 0.01
0.14 0.14 0.10 0.08 0.06 0.05 0.07 0.09 0.11 0.11 0.10 0.08 0.06 0.04 0.04 0.03 0.03 0.02 0.02 0.01 0.02 0.01 0.01 0.01 0.03 0.03 0.03 0.03 0.03 0.02 0.02 0.02 0.02 0.03 0.03 0.03 0.03 0.03 0.06 0.09 0.08 0.06 0.04
0.14 0.15 0.10 0.08 0.06 0.05 0.06 0.07 0.09 0.10 0.10 0.09 0.09 0.07 0.05 0.04 0.03 0.03 0.03 0.02 0.03 0.02 0.01 0.01 0.01 0.02 0.03 0.03 0.03 0.02 0.02 0.02 0.02 0.02 0.03 0.03 0.03 0.02 0.03 0.04 0.05 0.07 0.06
0.13 0.13 0.10 0.08 0.07 0.05 0.05 0.06 0.06 0.08 0.08 0.08 0.08 0.07 0.06 0.05 0.04 0.03 0.03 0.03 0.03 0.03 0.03 0.02 0.01 0.01 0.01 0.02 0.02 0.02 0.02 0.02 0.02 0.01 0.02 0.03 0.03 0.02 0.02 0.02 0.02 0.03 0.05
0.15 0.12 0.10 0.09 0.09 0.08 0.06 0.06 0.06 0.06 0.07 0.07 0.07 0.07 0.06 0.05 0.04 0.03 0.03 0.03 0.02 0.03 0.04 0.03 0.02 0.02 0.01 0.01 0.01 0.01 0.01 0.01 0.02 0.01 0.01 0.02 0.02 0.03 0.01 0.01 0.01 0.01 0.01
0.20 0.16 0.13 0.12 0.12 0.11 0.10 0.08 0.06 0.05 0.05 0.05 0.05 0.05 0.06 0.05 0.04 0.04 0.03 0.02 0.02 0.02 0.02 0.02 0.02 0.02 0.02 0.02 0.01 0.01 0.01 0.01 0.01 0.02 0.02 0.01 0.01 0.02 0.01 0.01 0.01 0.01 0.01
0.18 0.18 0.15 0.14 0.13 0.12 0.11 0.10 0.08 0.06 0.04 0.03 0.03 0.04 0.04 0.05 0.05 0.05 0.04 0.04 0.03 0.02 0.02 0.02 0.02 0.02 0.02 0.03 0.02 0.01 0.01 0.01 0.01 0.02 0.02 0.02 0.01 0.01 0.01 0.01 0.01 0.01 0.01
0.16 0.16 0.16 0.15 0.15 0.13 0.12 0.11 0.11 0.09 0.07 0.04 0.03 0.02 0.02 0.03 0.04 0.05 0.05 0.04 0.04 0.04 0.03 0.03 0.03 0.03 0.03 0.03 0.03 0.03 0.02 0.02 0.02 0.02 0.02 0.02 0.02 0.02 0.01 0.01 0.01 0.01 0.01
0.14 0.13 0.14 0.15 0.15 0.13 0.12 0.11 0.10 0.09 0.08 0.06 0.05 0.03 0.02 0.02 0.02 0.03 0.04 0.05 0.05 0.05 0.04 0.04 0.04 0.04 0.05 0.04 0.04 0.04 0.04 0.04 0.03 0.04 0.03 0.03 0.03 0.03 0.02 0.02 0.01 0.01 0.01
0.12 0.10 0.10 0.12 0.14 0.14 0.12 0.10 0.09 0.08 0.06 0.04 0.03 0.02 0.02 0.01 0.02 0.02 0.03 0.04 0.05 0.05 0.05 0.05 0.05 0.05 0.06 0.06 0.05 0.05 0.05 0.05 0.05 0.04 0.04 0.03 0.03 0.03 0.03 0.02 0.02 0.01 0.01
0.10 0.10 0.08 0.08 0.09 0.12 0.13 0.11 0.09 0.09 0.08 0.05 0.04 0.03 0.02 0.02 0.02 0.02 0.02 0.03 0.05 0.05 0.05 0.06 0.05 0.04 0.04 0.06 0.06 0.05 0.04 0.04 0.05 0.04 0.04 0.03 0.03 0.03 0.02 0.02 0.02 0.01 0.01
0.10 0.09 0.09 0.08 0.07 0.08 0.10 0.12 0.10 0.08 0.07 0.06 0.05 0.04 0.03 0.03 0.03 0.03 0.03 0.04 0.04 0.05 0.05 0.05 0.05 0.06 0.05 0.04 0.04 0.04 0.04 0.04 0.04 0.04 0.03 0.03 0.03 0.03 0.02 0.02 0.02 0.02 0.01
0.09 0.09 0.09 0.10 0.10 0.09 0.09 0.09 0.09 0.09 0.08 0.07 0.06 0.05 0.04 0.04 0.04 0.03 0.04 0.04 0.05 0.05 0.05 0.05 0.05 0.05 0.05 0.05 0.04 0.04 0.04 0.03 0.03 0.03 0.03 0.02 0.02 0.02 0.02 0.01 0.02 0.01 0.01
0.06 0.07 0.07 0.08 0.09 0.11 0.12 0.10 0.10 0.08 0.07 0.07 0.07 0.09 0.09 0.08 0.07 0.05 0.04 0.05 0.05 0.06 0.06 0.05 0.05 0.05 0.05 0.05 0.06 0.05 0.04 0.04 0.03 0.02 0.03 0.03 0.02 0.01 0.01 0.01 0.01 0.01 0.01
0.05 0.05 0.05 0.07 0.07 0.07 0.10 0.11 0.11 0.10 0.09 0.07 0.07 0.07 0.08 0.09 0.09 0.08 0.06 0.06 0.06 0.07 0.08 0.08 0.07 0.07 0.07 0.06 0.06 0.06 0.05 0.04 0.04 0.03 0.02 0.03 0.02 0.02 0.01 0.01 0.01 0.01 0.01
0.04 0.03 0.03 0.04 0.05 0.05 0.06 0.08 0.09 0.09 0.10 0.09 0.08 0.08 0.09 0.08 0.08 0.09 0.08 0.08 0.07 0.07 0.07 0.07 0.07 0.07 0.06 0.05 0.05 0.04 0.04 0.04 0.03 0.02 0.02 0.02 0.02 0.02 0.02 0.01 0.01 0.01 0.01
MSLP
1015.75 1016.38 1016.92 1017.43 1017.95 1018.54 1019.18 1019.88 1020.60 1021.30 1021.93 1022.46 1022.87 1023.18 1023.40 1023.57 1023.71 1023.85 1024.03 1024.25 1024.51 1024.81 1025.15 1025.50 1025.87 1026.25 1026.63 1027.00 1027.35 1027.67 1027.97 1028.23 1028.46 1028.67 1028.85 1029.02 1029.18 1029.33 1029.46 1029.57 1029.66 1029.70 1029.72
1015.62 1016.30 1016.86 1017.37 1017.90 1018.49 1019.15 1019.90 1020.68 1021.45 1022.16 1022.76 1023.23 1023.58 1023.81 1023.97 1024.08 1024.20 1024.34 1024.53 1024.77 1025.06 1025.39 1025.76 1026.14 1026.53 1026.92 1027.31 1027.67 1028.03 1028.35 1028.64 1028.91 1029.15 1029.36 1029.55 1029.73 1029.88 1030.01 1030.12 1030.19 1030.23 1030.24
1015.31 1016.07 1016.70 1017.25 1017.82 1018.43 1019.14 1019.93 1020.77 1021.61 1022.38 1023.06 1023.59 1023.97 1024.23 1024.39 1024.50 1024.60 1024.71 1024.87 1025.09 1025.35 1025.67 1026.01 1026.39 1026.78 1027.17 1027.57 1027.96 1028.33 1028.68 1029.01 1029.31 1029.58 1029.82 1030.03 1030.22 1030.38 1030.51 1030.60 1030.67 1030.70 1030.71
1014.82 1015.69 1016.40 1017.04 1017.66 1018.34 1019.09 1019.93 1020.82 1021.71 1022.55 1023.28 1023.87 1024.31 1024.62 1024.81 1024.94 1025.04 1025.15 1025.30 1025.49 1025.72 1026.01 1026.33 1026.68 1027.05 1027.43 1027.83 1028.22 1028.61 1028.99 1029.34 1029.67 1029.96 1030.22 1030.44 1030.64 1030.80 1030.93 1031.02 1031.09 1031.12 1031.13
1014.15 1015.12 1015.95 1016.69 1017.40 1018.15 1018.96 1019.84 1020.77 1021.70 1022.58 1023.36 1024.01 1024.52 1024.90 1025.16 1025.35 1025.50 1025.63 1025.79 1025.98 1026.19 1026.45 1026.73 1027.04 1027.38 1027.74 1028.11 1028.50 1028.89 1029.27 1029.63 1029.97 1030.27 1030.54 1030.78 1030.97 1031.14 1031.27 1031.37 1031.44 1031.48 1031.50
1013.31 1014.38 1015.32 1016.17 1016.98 1017.81 1018.68 1019.59 1020.55 1021.50 1022.41 1023.24 1023.95 1024.54 1025.01 1025.37 1025.66 1025.90 1026.11 1026.31 1026.52 1026.74 1026.97 1027.21 1027.48 1027.78 1028.10 1028.44 1028.80 1029.17 1029.55 1029.90 1030.23 1030.54 1030.80 1031.04 1031.23 1031.40 1031.54 1031.66 1031.74 1031.81 1031.85
1012.35 1013.48 1014.52 1015.48 1016.39 1017.29 1018.22 1019.16 1020.13 1021.09 1022.02 1022.87 1023.64 1024.32 1024.90 1025.40 1025.82 1026.19 1026.51 1026.79 1027.05 1027.29 1027.51 1027.74 1027.97 1028.22 1028.49 1028.79 1029.12 1029.46 1029.81 1030.14 1030.46 1030.75 1031.01 1031.24 1031.44 1031.61 1031.77 1031.91 1032.02 1032.11 1032.18
1011.33 1012.50 1013.60 1014.65 1015.65 1016.62 1017.59 1018.56 1019.52 1020.48 1021.40 1022.28 1023.11 1023.87 1024.57 1025.21 1025.78 1026.30 1026.75 1027.14 1027.48 1027.76 1028.00 1028.22 1028.42 1028.63 1028.87 1029.13 1029.42 1029.73 1030.04 1030.35 1030.65 1030.92 1031.16 1031.38 1031.59 1031.78 1031.96 1032.12 1032.27 1032.40 1032.50
1010.33 1011.49 1012.64 1013.74 1014.81 1015.84 1016.84 1017.83 1018.78 1019.72 1020.64 1021.53 1022.39 1023.23 1024.03 1024.80 1025.52 1026.18 1026.78 1027.28 1027.71 1028.05 1028.33 1028.56 1028.76 1028.95 1029.16 1029.40 1029.66 1029.94 1030.22 1030.51 1030.78 1031.03 1031.26 1031.48 1031.69 1031.90 1032.10 1032.31 1032.50 1032.67 1032.81
1009.44 1010.57 1011.71 1012.85 1013.96 1015.04 1016.07 1017.05 1018.00 1018.92 1019.82 1020.70 1021.59 1022.47 1023.35 1024.22 1025.06 1025.84 1026.55 1027.17 1027.68 1028.09 1028.42 1028.67 1028.89 1029.10 1029.31 1029.54 1029.79 1030.05 1030.32 1030.59 1030.84 1031.07 1031.29 1031.51 1031.73 1031.96 1032.20 1032.44 1032.68 1032.90 1033.08
1008.72 1009.77 1010.89 1012.04 1013.18 1014.28 1015.33 1016.32 1017.26 1018.16 1019.03 1019.90 1020.77 1021.67 1022.59 1023.52 1024.43 1025.30 1026.09 1026.79 1027.37 1027.85 1028.23 1028.53 1028.79 1029.03 1029.27 1029.52 1029.78 1030.05 1030.32 1030.58 1030.81 1031.03 1031.24 1031.46 1031.69 1031.94 1032.21 1032.49 1032.78 1033.04 1033.26
1008.18 1009.14 1010.21 1011.34 1012.48 1013.60 1014.67 1015.67 1016.60 1017.48 1018.33 1019.17 1020.03 1020.91 1021.83 1022.77 1023.71 1024.60 1025.44 1026.18 1026.82 1027.35 1027.79 1028.15 1028.47 1028.76 1029.05 1029.34 1029.64 1029.93 1030.21 1030.46 1030.69 1030.90 1031.10 1031.31 1031.55 1031.82 1032.11 1032.44 1032.76 1033.07 1033.34
1007.80 1008.65 1009.66 1010.75 1011.88 1013.00 1014.08 1015.09 1016.03 1016.90 1017.73 1018.55 1019.38 1020.23 1021.12 1022.03 1022.95 1023.84 1024.67 1025.43 1026.10 1026.67 1027.16 1027.59 1027.98 1028.34 1028.70 1029.05 1029.39 1029.71 1030.00 1030.26 1030.48 1030.68 1030.87 1031.08 1031.31 1031.59 1031.91 1032.26 1032.63 1032.98 1033.29
1007.53 1008.26 1009.17 1010.21 1011.31 1012.42 1013.51 1014.54 1015.49 1016.37 1017.20 1018.00 1018.80 1019.62 1020.47 1021.33 1022.21 1023.06 1023.88 1024.63 1025.30 1025.91 1026.45 1026.94 1027.40 1027.83 1028.26 1028.67 1029.06 1029.41 1029.72 1029.98 1030.19 1030.38 1030.56 1030.75 1030.98 1031.27 1031.60 1031.98 1032.38 1032.77 1033.12
1007.30 1007.90 1008.70 1009.65 1010.70 1011.79 1012.88 1013.92 1014.90 1015.80 1016.65 1017.46 1018.25 1019.05 1019.86 1020.69 1021.52 1022.33 1023.12 1023.85 1024.53 1025.16 1025.74 1026.29 1026.82 1027.32 1027.82 1028.28 1028.71 1029.09 1029.41 1029.66 1029.86 1030.03 1030.19 1030.37 1030.59 1030.87 1031.22 1031.61 1032.04 1032.46 1032.85
1007.05 1007.49 1008.16 1009.01 1009.98 1011.03 1012.11 1013.16 1014.16 1015.11 1016.00 1016.84 1017.66 1018.47 1019.27 1020.08 1020.89 1021.67 1022.43 1023.16 1023.84 1024.49 1025.11 1025.71 1026.29 1026.85 1027.39 1027.90 1028.36 1028.75 1029.07 1029.31 1029.50 1029.65 1029.79 1029.95 1030.16 1030.44 1030.79 1031.19 1031.64 1032.09 1032.53
1006.74 1007.01 1007.53 1008.25 1009.13 1010.11 1011.15 1012.21 1013.24 1014.23 1015.18 1016.08 1016.95 1017.81 1018.65 1019.47 1020.28 1021.07 1021.83 1022.55 1023.25 1023.92 1024.57 1025.20 1025.82 1026.43 1027.00 1027.53 1028.00 1028.40 1028.71 1028.95 1029.12 1029.25 1029.38 1029.53 1029.73 1030.00 1030.35 1030.76 1031.22 1031.70 1032.16
1006.40 1006.48 1006.83 1007.40 1008.15 1009.05 1010.04 1011.07 1012.12 1013.16 1014.18 1015.16 1016.11 1017.04 1017.94 1018.82 1019.66 1020.48 1021.26 1022.01 1022.72 1023.41 1024.08 1024.74 1025.39 1026.01 1026.60 1027.14 1027.61 1028.00 1028.31 1028.54 1028.71 1028.84 1028.96 1029.11 1029.31 1029.58 1029.92 1030.33 1030.80 1031.29 1031.78
1006.07 1005.96 1006.13 1006.52 1007.14 1007.92 1008.83 1009.83 1010.88 1011.95 1013.03 1014.09 1015.13 1016.15 1017.13 1018.08 1018.99 1019.86 1020.67 1021.45 1022.19 1022.90 1023.59 1024.25 1024.91 1025.54 1026.13 1026.67 1027.14 1027.54 1027.85 1028.08 1028.26 1028.40 1028.53 1028.69 1028.90 1029.17 1029.51 1029.92 1030.38 1030.87 1031.37
1005.83 1005.54 1005.51 1005.74 1006.19 1006.84 1007.65 1008.58 1009.60 1010.69 1011.80 1012.94 1014.06 1015.17 1016.24 1017.27 1018.25 1019.16 1020.02 1020.83 1021.59 1022.31 1023.00 1023.67 1024.32 1024.95 1025.54 1026.08 1026.56 1026.96 1027.29 1027.55 1027.76 1027.93 1028.09 1028.27 1028.49 1028.77 1029.11 1029.51 1029.95 1030.43 1030.93
1005.75 1005.29 1005.09 1005.14 1005.43 1005.93 1006.62 1007.46 1008.43 1009.49 1010.62 1011.79 1012.97 1014.15 1015.29 1016.39 1017.42 1018.38 1019.28 1020.10 1020.87 1021.60 1022.29 1022.95 1023.60 1024.22 1024.81 1025.36 1025.85 1026.28 1026.64 1026.95 1027.20 1027.42 1027.62 1027.84 1028.09 1028.38 1028.71 1029.10 1029.52 1029.98 1030.45
1005.91 1005.30 1004.95 1004.83 1004.96 1005.30 1005.86 1006.59 1007.47 1008.48 1009.59 1010.76 1011.96 1013.17 1014.35 1015.48 1016.55 1017.54 1018.44 1019.28 1020.04 1020.76 1021.44 1022.10 1022.74 1023.36 1023.95 1024.52 1025.04 1025.51 1025.93 1026.29 1026.61 1026.89 1027.15 1027.41 1027.69 1027.99 1028.33 1028.69 1029.09 1029.51 1029.96
1006.32 1005.60 1005.11 1004.86 1004.83 1005.03 1005.44 1006.05 1006.82 1007.75 1008.80 1009.93 1011.11 1012.31 1013.49 1014.63 1015.69 1016.68 1017.57 1018.39 1019.15 1019.85 1020.51 1021.16 1021.80 1022.43 1023.04 1023.64 1024.20 1024.73 1025.21 1025.63 1026.02 1026.37 1026.69 1027.00 1027.31 1027.62 1027.95 1028.31 1028.68 1029.07 1029.48
1006.99 1006.19 1005.61 1005.23 1005.07 1005.14 1005.41 1005.88 1006.53 1007.35 1008.31 1009.37 1010.50 1011.65 1012.79 1013.89 1014.92 1015.87 1016.74 1017.53 1018.26 1018.94 1019.59 1020.23 1020.88 1021.52 1022.17 1022.80 1023.42 1024.00 1024.54 1025.04 1025.49 1025.90 1026.27 1026.62 1026.96 1027.29 1027.62 1027.97 1028.32 1028.69 1029.08
1007.89 1007.04 1006.39 1005.92 1005.66 1005.59 1005.74 1006.08 1006.61 1007.31 1008.16 1009.12 1010.16 1011.23 1012.30 1013.34 1014.31 1015.21 1016.03 1016.78 1017.47 1018.13 1018.78 1019.42 1020.08 1020.74 1021.42 1022.10 1022.77 1023.40 1024.00 1024.55 1025.06 1025.51 1025.93 1026.32 1026.68 1027.03 1027.37 1027.71 1028.06 1028.41 1028.79
1008.95 1008.09 1007.40 1006.87 1006.51 1006.35 1006.38 1006.59 1007.00 1007.58 1008.31 1009.16 1010.09 1011.07 1012.05 1013.00 1013.90 1014.73 1015.50 1016.20 1016.86 1017.50 1018.14 1018.79 1019.46 1020.16 1020.87 1021.59 1022.30 1022.98 1023.62 1024.21 1024.75 1025.24 1025.68 1026.09 1026.47 1026.84 1027.20 1027.55 1027.91 1028.27 1028.64
Thickness
5653 5654 5656 5658 5659 5660 5661 5661 5662 5662 5663 5663 5662 5662 5663 5662 5662 5663 5663 5663 5664 5664 5663 5663 5662 5662 5661 5660 5658 5657 5655 5654 5653 5651 5650 5648 5647 5645 5643 5642 5640 5639 5637
5647 5648 5650 5651 5653 5654 5655 5656 5656 5657 5657 5658 5657 5657 5657 5657 5657 5658 5658 5658 5659 5659 5659 5659 5658 5657 5657 5656 5654 5653 5651 5650 5649 5647 5646 5644 5643 5641 5639 5638 5636 5635 5634
5640 5641 5643 5644 5646 5647 5649 5649 5650 5651 5652 5652 5652 5652 5652 5651 5652 5652 5653 5653 5653 5653 5654 5654 5653 5653 5652 5651 5650 5649 5647 5646 5645 5643 5642 5640 5639 5637 5636 5634 5633 5631 5630
5632 5634 5636 5637 5639 5641 5642 5643 5644 5644 5645 5645 5646 5646 5646 5646 5646 5646 5647 5647 5647 5648 5648 5648 5648 5647 5647 5647 5646 5645 5643 5642 5641 5639 5638 5636 5635 5633 5632 5630 5629 5628 5626
5623 5626 5628 5630 5631 5633 5635 5637 5637 5638 5638 5638 5639 5639 5639 5640 5640 5641 5641 5641 5642 5642 5643 5643 5643 5642 5642 5641 5641 5640 5639 5638 5637 5635 5634 5632 5631 5629 5627 5626 5625 5624 5622
5614 5617 5620 5622 5624 5626 5627 5629 5630 5631 5631 5632 5633 5632 5632 5633 5634 5635 5635 5635 5636 5636 5637 5637 5637 5637 5636 5636 5636 5635 5634 5634 5633 5631 5630 5628 5626 5625 5623 5622 5621 5619 5618
5605 5608 5611 5613 5616 5619 5620 5622 5623 5623 5623 5625 5625 5624 5624 5626 5627 5628 5629 5629 5630 5630 5631 5631 5631 5631 5631 5631 5630 5629 5629 5629 5628 5627 5625 5623 5622 5620 5619 5618 5616 5615 5613
5597 5600 5604 5606 5608 5611 5613 5615 5616 5616 5617 5619 5620 5619 5617 5618 5620 5621 5623 5623 5624 5624 5624 5625 5626 5626 5625 5625 5624 5624 5623 5623 5623 5622 5620 5618 5617 5616 5615 5613 5612 5610 5608
5588 5592 5596 5598 5600 5603 5606 5608 5610 5611 5611 5611 5615 5617 5615 5614 5613 5614 5615 5617 5617 5618 5619 5619 5620 5620 5620 5619 5619 5618 5618 5617 5617 5616 5615 5614 5613 5611 5610 5608 5607 5605 5603
5578 5583 5587 5590 5592 5595 5598 5601 5603 5604 5606 5606 5607 5610 5613 5614 5611 5608 5608 5609 5611 5612 5613 5613 5614 5614 5613 5613 5612 5612 5612 5611 5611 5610 5609 5608 5607 5606 5604 5603 5602 5600 5598
5568 5573 5579 5582 5585 5587 5590 5593 5595 5597 5599 5601 5602 5603 5603 5605 5607 5606 5603 5602 5603 5605 5606 5607 5607 5608 5607 5607 5606 5606 5606 5605 5605 5604 5603 5602 5601 5600 5599 5598 5596 5594 5593
5558 5564 5569 5573 5577 5580 5583 5586 5588 5590 5592 5594 5596 5598 5599 5600 5600 5600 5599 5597 5596 5597 5599 5600 5601 5601 5601 5601 5600 5600 5599 5599 5598 5598 5597 5596 5595 5594 5593 5591 5590 5588 5586
5548 5555 5560 5564 5568 5572 5575 5578 5581 5582 5585 5587 5589 5591 5593 5595 5596 5596 5595 5592 5590 5589 5591 5592 5594 5594 5595 5594 5594 5593 5593 5592 5592 5591 5590 5590 5588 5587 5586 5585 5583 5581 5580
5538 5545 5550 5555 5559 5563 5566 5570 5573 5575 5577 5580 5582 5584 5585 5587 5589 5591 5590 5587 5584 5582 5583 5585 5586 5588 5588 5588 5588 5587 5586 5585 5584 5584 5583 5583 5582 5580 5579 5578 5576 5574 5573
5527 5534 5540 5545 5550 5554 5558 5561 5564 5567 5569 5571 5574 5576 5578 5580 5581 5583 5584 5585 5584 5580 5579 5579 5580 5581 5581 5581 5580 5580 5579 5578 5577 5576 5576 5575 5574 5573 5572 5571 5569 5567 5566
5516 5523 5530 5536 5541 5544 5548 5552 5555 5558 5561 5563 5566 5568 5570 5572 5573 5574 5576 5577 5579 5579 5575 5575 5574 5574 5574 5573 5573 5572 5571 5570 5569 5569 5568 5567 5567 5566 5564 5563 5562 5560 5558
5506 5514 5519 5526 5531 5535 5539 5544 5547 5549 5552 5554 5557 5559 5562 5563 5565 5565 5567 5568 5569 5571 5569 5567 5566 5566 5566 5565 5565 5564 5563 5562 5562 5561 5560 5560 5559 5558 5556 5555 5553 5552 5550
5496 5503 5509 5515 5521 5526 5530 5534 5537 5540 5542 5545 5548 5551 5552 5554 5556 5558 5559 5560 5561 5562 5563 5561 5558 5558 5558 5557 5557 5556 5555 5554 5554 5553 5552 5552 5551 5550 5548 5547 5545 5543 5541
5486 5493 5499 5505 5511 5516 5520 5524 5528 5531 5533 5537 5540 5542 5544 5546 5548 5549 5551 5552 5553 5554 5555 5554 5552 5549 5549 5548 5548 5547 5546 5546 5545 5544 5543 5543 5542 5541 5539 5538 5536 5534 5533
5476 5483 5489 5494 5500 5506 5510 5515 5518 5521 5525 5528 5531 5534 5536 5538 5540 5541 5543 5544 5545 5545 5545 5545 5543 5541 5540 5539 5539 5538 5537 5537 5536 5535 5534 5534 5532 5531 5530 5528 5527 5525 5524
5465 5472 5478 5483 5489 5496 5501 5505 5509 5512 5515 5518 5522 5525 5527 5529 5531 5533 5535 5536 5537 5537 5536 5536 5535 5533 5532 5530 5530 5530 5529 5527 5526 5525 5524 5523 5523 5522 5520 5518 5517 5515 5514
5453 5461 5467 5473 5479 5486 5491 5495 5499 5503 5506 5509 5512 5515 5517 5519 5521 5523 5526 5528 5529 5529 5529 5528 5527 5527 5526 5524 5523 5521 5519 5517 5516 5516 5514 5512 5512 5511 5509 5508 5507 5505 5503
5441 5449 5456 5462 5469 5475 5480 5485 5489 5493 5497 5500 5503 5505 5507 5509 5511 5513 5515 5517 5518 5520 5521 5522 5521 5521 5519 5518 5515 5512 5509 5508 5507 5506 5503 5502 5501 5500 5499 5497 5496 5494 5492
5429 5437 5444 5451 5457 5464 5470 5475 5479 5483 5487 5490 5493 5496 5497 5500 5501 5503 5505 5505 5507 5508 5509 5511 5513 5513 5511 5509 5508 5506 5502 5497 5494 5493 5493 5491 5490 5489 5488 5487 5485 5483 5481
5417 5425 5433 5440 5446 5452 5458 5464 5468 5472 5477 5480 5483 5485 5488 5490 5493 5494 5495 5495 5496 5496 5496 5498 5500 5499 5499 5498 5496 5493 5489 5486 5484 5482 5480 5479 5478 5477 5476 5475 5474 5471 5469
5405 5413 5421 5429 5435 5441 5447 5453 5458 5462 5467 5470 5472 5475 5478 5481 5482 5483 5485 5485 5485 5486 5485 5485 5485 5486 5485 5485 5484 5483 5481 5477 5474 5471 5470 5467 5465 5463 5462 5462 5461 5459 5456